STARLINK-32010, 60279

Orbit data source: Space-Track

STARLINK-32010, 60279 is a payload satellite owned by SpaceX/Seattle (US) in LEO that was launched on Sun, 28 Jul 2024 UTC via an FALCON 9 launch vehicle from the Air Force Eastern Test Range (AFETR). Payload-class satellites include a variety of spacecraft equipped with specific instruments for various scientific and technological missions. These include communications satellites like Starlink; space stations such as the ISS; scientific satellites like the Hubble; Earth observation satellites from companies like Planet Labs, Umbra, and HawkEye 360; GPS; miniature CubeSats for education and research; and military/defense satellites.

Loading next visibility...
Identifier
60279, 2024-132B
Orbit
LEO
Country
Flag of USUS
Related business
Manufacturer
SpaceX/Seattle
Mission
Operational Commercial Communications
Bus & Motor
STARLINK V2M, Unknown motor
Mass
730 kg wet, ~700 kg dry
Launch date (UTC)
2024-07-28 (2 years ago)
Launch vehicle
FALCON 9
Launch site
Air Force Eastern Test Range (AFETR)
Object type
Payload
Rocket body
Debris
Shape & HBR
Box + 2 Pan, 17.7 m
Radar Cross Section
33.884 m², Large (>1 m²)

Expand to show TLE details & history
Last TLE update: 19 hours ago

TLE from 19 hours ago
0 STARLINK-32010
1 60279U 24132B   26110.01449785 -.00005837  00000-0 -18540-3 0  9990
2 60279  53.1599 220.7477 0001069  94.2100 265.9023 15.30150766 97882
Epoch: 2026-04-20T00:20Z
TLE epoch observation values (Epoch: 2026-04-20T00:20:52.614Z)
Latitude
-0°
Longitude
7.41776°
Altitude
476.314 km
Speed
7.629 km/s
True Right ascension
14h 42m 59s
True Declination
0° 00' 00"
Sunlit
Object was in full shadow at epoch
Visualization orbit readout
Latitude
Unknown
Longitude
Unknown
Altitude
Unknown
Speed
Unknown
Apparent Right ascension
Unknown
Apparent Declination
Unknown
Sunlit
N/A
Visualization observer readout
Local Sidereal Time
02:12:03
Azimuth
Unknown
Elevation
Unknown
Doppler factor
Unknown
Orbital elements
Apogee altitude
476.351 km
Perigee altitude
474.886 km
Semi-major axis
6,853.756 km
Eccentricity
0.00011
Inclination
53.1599°
RAAN
220.7477°
Arg. of periapsis
94.21°
True anomaly
265.89008°
Mean anomaly
265.9023°
Eccentric anomaly
265.89619°
Mean motion
3.82517 °/min
Orbital period
94.11 mins
BSTAR
-0.0001854
Loading maneuver chart data...
Computing Atmospheric mass density...
Loading historical data...
Loading historical data...
Loading historical data...
Loading historical data...
Loading historical data...
Loading historical data...
Loading historical data...

Documentation

Showing up to 5 results
|